Location: Foligno
(42.9600°N, 12.7050°E)
Time: 07:29:03
(UTC+02:00)

ISS - Pass Details

Date: 16 May 2018
Orbit: 402 x 407 km, 51.6° (Epoch: 24 May)

Event Time Altitude Azimuth Distance (km) Brightness Sun altitude
Exits shadow 03:29:42 - 304° (NW) 1,821 -0.5 -19.7°
Reaches altitude 10° 03:30:52 10° 316° (NW) 1,457 -0.9 -19.6°
Maximum altitude 03:33:10 17° 1° (N) 1,091 -1.0 -19.3°
Drops below altitude 10° 03:35:27 10° 45° (NE) 1,457 0.2 -19.1°
Sets 03:38:01 0° 66° (ENE) 2,317 1.1 -18.8°
